| time (UTC) | temp C | wind direction | speed KPH | gust KPH | rain 1hr cm | rain 24hr cm | rain mn cm | humidity % | barometer mb |
| 20260508122331 | 11 | 90 | 3.2 | 4.8 | 0.00 | 0.00 | 0.00 | 76 | 999.9 |
| 20260508122131 | 11 | 108 | 3.2 | 3.2 | 0.00 | 0.00 | 0.00 | 78 | 1000.1 |
| 20260508121931 | 11 | 69 | 1.6 | 4.8 | 0.00 | 0.00 | 0.00 | 78 | 1000.0 |
| 20260508121731 | 11 | 56 | 1.6 | 1.6 | 0.00 | 0.00 | 0.00 | 79 | 999.9 |
| 20260508121531 | 11 | 69 | 0.0 | 3.2 | 0.00 | 0.00 | 0.00 | 78 | 999.8 |
| 20260508121131 | 11 | 89 | 3.2 | 3.2 | 0.00 | 0.00 | 0.00 | 76 | 999.8 |
| 20260508120931 | 11 | 86 | 1.6 | 4.8 | 0.00 | 0.00 | 0.00 | 76 | 999.9 |
| 20260508120731 | 11 | 113 | 0.0 | 3.2 | 0.00 | 0.00 | 0.00 | 76 | 1000.1 |
| 20260508120531 | 11 | 109 | 1.6 | 4.8 | 0.00 | 0.00 | 0.00 | 77 | 999.9 |
| 20260508120130 | 10 | 85 | 1.6 | 6.4 | 0.00 | 0.00 | 0.00 | 76 | 999.8 |
| 20260508115930 | 11 | 93 | 1.6 | 9.7 | 0.00 | 0.00 | 0.00 | 77 | 1000.2 |
| 20260508115730 | 11 | 80 | 1.6 | 3.2 | 0.00 | 0.00 | 0.00 | 79 | 1000.2 |
| 20260508115530 | 10 | 63 | 3.2 | 3.2 | 0.00 | 0.00 | 0.00 | 78 | 1000.3 |
| 20260508115330 | 11 | 64 | 0.0 | 4.8 | 0.00 | 0.00 | 0.00 | 78 | 1000.1 |
| 20260508115130 | 11 | 82 | 3.2 | 6.4 | 0.00 | 0.00 | 0.00 | 77 | 1000.0 |
| 20260508114930 | 11 | 77 | 3.2 | 4.8 | 0.00 | 0.00 | 0.00 | 77 | 1000.0 |
| 20260508114730 | 11 | 114 | 4.8 | 4.8 | 0.00 | 0.00 | 0.00 | 77 | 1000.2 |
| 20260508114530 | 11 | 132 | 1.6 | 3.2 | 0.00 | 0.00 | 0.00 | 80 | 1000.0 |
| 20260508114331 | 11 | 112 | 0.0 | 1.6 | 0.00 | 0.00 | 0.00 | 82 | 1000.0 |
| 20260508114130 | 11 | 107 | 1.6 | 1.6 | 0.00 | 0.00 | 0.00 | 81 | 1000.1 |
| 20260508113931 | 11 | 141 | 0.0 | 1.6 | 0.00 | 0.00 | 0.00 | 81 | 1000.1 |
| 20260508113730 | 11 | 141 | 0.0 | 1.6 | 0.00 | 0.00 | 0.00 | 81 | 1000.0 |
| 20260508113530 | 11 | 142 | 1.6 | 3.2 | 0.00 | 0.00 | 0.00 | 80 | 1000.3 |
| 20260508113330 | 10 | 81 | 0.0 | 0.0 | 0.00 | 0.00 | 0.00 | 81 | 1000.2 |
| 20260508113130 | 10 | 81 | 1.6 | 1.6 | 0.00 | 0.00 | 0.00 | 83 | 1000.0 |
| 20260508112730 | 10 | 90 | 1.6 | 6.4 | 0.00 | 0.00 | 0.00 | 83 | 1000.1 |
| 20260508112530 | 10 | 145 | 4.8 | 6.4 | 0.00 | 0.00 | 0.00 | 82 | 1000.0 |
| 20260508112130 | 9 | 91 | 1.6 | 4.8 | 0.00 | 0.00 | 0.00 | 82 | 1000.1 |
| 20260508111930 | 9 | 91 | 1.6 | 4.8 | 0.00 | 0.00 | 0.00 | 83 | 1000.0 |
| 20260508111730 | 9 | 94 | 3.2 | 4.8 | 0.00 | 0.00 | 0.00 | 83 | 1000.0 |
| 20260508111530 | 9 | 124 | 4.8 | 6.4 | 0.00 | 0.00 | 0.00 | 83 | 1000.0 |
| 20260508111330 | 9 | 126 | 1.6 | 3.2 | 0.00 | 0.00 | 0.00 | 84 | 1000.0 |
| 20260508111130 | 9 | 88 | 1.6 | 1.6 | 0.00 | 0.00 | 0.00 | 83 | 1000.1 |
| 20260508110930 | 9 | 88 | 1.6 | 1.6 | 0.00 | 0.00 | 0.00 | 83 | 1000.1 |
| 20260508110730 | 9 | 88 | 1.6 | 3.2 | 0.00 | 0.00 | 0.00 | 81 | 1000.2 |
| 20260508110331 | 10 | 94 | 0.0 | 1.6 | 0.00 | 0.00 | 0.00 | 81 | 1000.2 |
| 20260508110131 | 10 | 106 | 1.6 | 1.6 | 0.00 | 0.00 | 0.00 | 81 | 999.9 |
| 20260508105931 | 9 | 96 | 0.0 | 0.0 | 0.00 | 0.00 | 0.00 | 82 | 1000.1 |
| 20260508105531 | 9 | 96 | 1.6 | 1.6 | 0.00 | 0.00 | 0.00 | 83 | 1000.1 |
| 20260508104731 | 8 | 95 | 0.0 | 0.0 | 0.00 | 0.00 | 0.00 | 90 | 1000.0 |
| 20260508104531 | 8 | 95 | 0.0 | 0.0 | 0.00 | 0.00 | 0.00 | 87 | 1000.0 |
| 20260508104331 | 8 | 95 | 0.0 | 0.0 | 0.00 | 0.00 | 0.00 | 87 | 1000.0 |
| 20260508104131 | 8 | 95 | 0.0 | 0.0 | 0.00 | 0.00 | 0.00 | 90 | 999.9 |
| 20260508103931 | 8 | 95 | 0.0 | 0.0 | 0.00 | 0.00 | 0.00 | 93 | 999.9 |
| 20260508103731 | 7 | 95 | 0.0 | 0.0 | 0.00 | 0.00 | 0.00 | 93 | 999.9 |
| 20260508103531 | 7 | 95 | 0.0 | 0.0 | 0.00 | 0.00 | 0.00 | 93 | 1000.0 |
| 20260508103331 | 7 | 95 | 0.0 | 0.0 | 0.00 | 0.00 | 0.00 | 94 | 1000.0 |
| 20260508103131 | 7 | 95 | 0.0 | 0.0 | 0.00 | 0.00 | 0.00 | 95 | 1000.0 |
| 20260508102931 | 7 | 95 | 0.0 | 0.0 | 0.00 | 0.00 | 0.00 | 96 | 999.9 |
| 20260508102531 | 7 | 95 | 0.0 | 0.0 | 0.00 | 0.00 | 0.00 | 99 | 999.8 |
| 20260508102331 | 7 | 95 | 0.0 | 0.0 | 0.00 | 0.00 | 0.00 | 99 | 999.9 |
| 20260508102131 | 6 | 95 | 0.0 | 0.0 | 0.00 | 0.00 | 0.00 | 99 | 999.9 |
| 20260508101931 | 6 | 95 | 0.0 | 0.0 | 0.00 | 0.00 | 0.00 | 99 | 1000.0 |
| 20260508101731 | 6 | 95 | 0.0 | 0.0 | 0.00 | 0.00 | 0.00 | 99 | 1000.1 |
| 20260508101531 | 6 | 95 | 0.0 | 0.0 | 0.00 | 0.00 | 0.00 | 99 | 999.9 |
| 20260508101331 | 6 | 95 | 0.0 | 0.0 | 0.00 | 0.00 | 0.00 | 99 | 999.9 |
| 20260508100931 | 6 | 95 | 0.0 | 0.0 | 0.00 | 0.00 | 0.00 | 99 | 999.8 |
| 20260508100731 | 6 | 95 | 0.0 | 0.0 | 0.00 | 0.00 | 0.00 | 99 | 1000.0 |
| 20260508100330 | 6 | 95 | 0.0 | 0.0 | 0.00 | 0.00 | 0.00 | 99 | 999.8 |
| 20260508100131 | 6 | 95 | 0.0 | 0.0 | 0.00 | 0.00 | 0.00 | 99 | 999.8 |
| 20260508095931 | 6 | 95 | 0.0 | 0.0 | 0.00 | 0.00 | 0.00 | 99 | 999.9 |
| 20260508095730 | 5 | 95 | 0.0 | 0.0 | 0.00 | 0.00 | 0.00 | 99 | 999.9 |
| 20260508095530 | 4 | 95 | 0.0 | 0.0 | 0.00 | 0.00 | 0.00 | 99 | 999.7 |
| 20260508095330 | 3 | 95 | 0.0 | 0.0 | 0.00 | 0.00 | 0.00 | 99 | 999.8 |
| 20260508095131 | 3 | 95 | 0.0 | 0.0 | 0.00 | 0.00 | 0.00 | 99 | 999.8 |
| 20260508094930 | 3 | 95 | 0.0 | 0.0 | 0.00 | 0.00 | 0.00 | 99 | 999.8 |
| 20260508094730 | 3 | 95 | 0.0 | 0.0 | 0.00 | 0.00 | 0.00 | 99 | 999.8 |
| 20260508094530 | 3 | 95 | 0.0 | 0.0 | 0.00 | 0.00 | 0.00 | 99 | 1000.0 |
| 20260508094330 | 3 | 95 | 0.0 | 0.0 | 0.00 | 0.00 | 0.00 | 99 | 999.8 |
| 20260508094130 | 3 | 95 | 0.0 | 0.0 | 0.00 | 0.00 | 0.00 | 99 | 999.6 |
| 20260508093531 | 3 | 95 | 0.0 | 0.0 | 0.00 | 0.00 | 0.00 | 99 | 999.7 |
| 20260508093331 | 3 | 95 | 0.0 | 0.0 | 0.00 | 0.00 | 0.00 | 99 | 999.8 |
| 20260508093131 | 3 | 95 | 0.0 | 0.0 | 0.00 | 0.00 | 0.00 | 99 | 999.7 |
| 20260508092931 | 3 | 95 | 0.0 | 0.0 | 0.00 | 0.00 | 0.00 | 99 | 999.9 |
| 20260508092731 | 3 | 95 | 0.0 | 0.0 | 0.00 | 0.00 | 0.00 | 99 | 999.8 |
| 20260508092531 | 3 | 95 | 0.0 | 0.0 | 0.00 | 0.00 | 0.00 | 99 | 999.8 |
| 20260508092331 | 3 | 95 | 0.0 | 0.0 | 0.00 | 0.00 | 0.00 | 99 | 999.9 |
| 20260508092131 | 3 | 95 | 0.0 | 0.0 | 0.00 | 0.00 | 0.00 | 99 | 999.9 |
| 20260508091931 | 3 | 95 | 0.0 | 0.0 | 0.00 | 0.00 | 0.00 | 99 | 999.6 |
| 20260508091731 | 3 | 95 | 0.0 | 0.0 | 0.00 | 0.00 | 0.00 | 99 | 999.7 |
| 20260508091531 | 3 | 95 | 0.0 | 0.0 | 0.00 | 0.00 | 0.00 | 99 | 999.7 |
| 20260508091330 | 3 | 95 | 0.0 | 0.0 | 0.00 | 0.00 | 0.00 | 99 | 999.7 |
| 20260508091131 | 3 | 95 | 0.0 | 0.0 | 0.00 | 0.00 | 0.00 | 99 | 999.8 |
| 20260508090930 | 3 | 95 | 0.0 | 0.0 | 0.00 | 0.00 | 0.00 | 99 | 999.9 |
| 20260508090730 | 3 | 95 | 0.0 | 0.0 | 0.00 | 0.00 | 0.00 | 99 | 999.7 |
| 20260508090330 | 3 | 95 | 0.0 | 0.0 | 0.00 | 0.00 | 0.00 | 99 | 999.7 |
| 20260508090130 | 3 | 95 | 0.0 | 0.0 | 0.00 | 0.00 | 0.00 | 99 | 999.8 |
| 20260508085730 | 3 | 95 | 0.0 | 0.0 | 0.00 | 0.00 | 0.00 | 99 | 999.9 |
| 20260508085530 | 3 | 95 | 0.0 | 0.0 | 0.00 | 0.00 | 0.00 | 99 | 999.7 |
| 20260508085330 | 3 | 95 | 0.0 | 0.0 | 0.00 | 0.00 | 0.00 | 99 | 999.6 |
| 20260508085130 | 3 | 95 | 0.0 | 0.0 | 0.00 | 0.00 | 0.00 | 99 | 999.8 |
| 20260508084930 | 3 | 95 | 0.0 | 0.0 | 0.00 | 0.00 | 0.00 | 99 | 999.7 |
| 20260508084530 | 3 | 95 | 0.0 | 0.0 | 0.00 | 0.00 | 0.00 | 99 | 999.6 |
| 20260508084330 | 3 | 95 | 0.0 | 0.0 | 0.00 | 0.00 | 0.00 | 99 | 999.7 |
| 20260508084130 | 3 | 95 | 0.0 | 0.0 | 0.00 | 0.00 | 0.00 | 99 | 999.7 |
| 20260508083730 | 3 | 95 | 0.0 | 0.0 | 0.00 | 0.00 | 0.00 | 99 | 999.9 |
| 20260508083531 | 3 | 95 | 0.0 | 0.0 | 0.00 | 0.00 | 0.00 | 99 | 999.7 |
| 20260508083331 | 3 | 95 | 0.0 | 0.0 | 0.00 | 0.00 | 0.00 | 99 | 999.6 |
| 20260508083130 | 3 | 95 | 0.0 | 0.0 | 0.00 | 0.00 | 0.00 | 99 | 999.5 |
| 20260508082930 | 3 | 95 | 0.0 | 0.0 | 0.00 | 0.00 | 0.00 | 99 | 999.7 |
| 20260508082530 | 3 | 95 | 0.0 | 0.0 | 0.00 | 0.00 | 0.00 | 99 | 999.6 |
| 20260508082330 | 3 | 95 | 0.0 | 0.0 | 0.00 | 0.00 | 0.00 | 99 | 999.7 |
| 20260508082130 | 3 | 95 | 0.0 | 0.0 | 0.00 | 0.00 | 0.00 | 99 | 999.7 |
| 20260508081930 | 3 | 95 | 0.0 | 0.0 | 0.00 | 0.00 | 0.00 | 99 | 999.9 |
| 20260508081730 | 3 | 95 | 0.0 | 0.0 | 0.00 | 0.00 | 0.00 | 99 | 999.8 |
| 20260508081530 | 3 | 95 | 0.0 | 0.0 | 0.00 | 0.00 | 0.00 | 99 | 999.6 |
| 20260508081130 | 3 | 95 | 0.0 | 0.0 | 0.00 | 0.00 | 0.00 | 99 | 999.5 |
| 20260508080930 | 3 | 95 | 0.0 | 0.0 | 0.00 | 0.00 | 0.00 | 99 | 999.7 |
| 20260508080730 | 3 | 95 | 0.0 | 0.0 | 0.00 | 0.00 | 0.00 | 99 | 999.6 |
| 20260508080331 | 3 | 95 | 0.0 | 0.0 | 0.00 | 0.00 | 0.00 | 99 | 999.6 |
| 20260508080131 | 3 | 95 | 0.0 | 0.0 | 0.00 | 0.00 | 0.00 | 99 | 999.6 |
| 20260508075931 | 3 | 95 | 0.0 | 0.0 | 0.00 | 0.00 | 0.00 | 99 | 999.6 |
| 20260508075731 | 3 | 95 | 0.0 | 0.0 | 0.00 | 0.00 | 0.00 | 99 | 999.3 |
| 20260508075331 | 3 | 95 | 0.0 | 0.0 | 0.00 | 0.00 | 0.00 | 99 | 999.6 |
| 20260508074931 | 3 | 95 | 0.0 | 0.0 | 0.00 | 0.00 | 0.00 | 99 | 999.5 |
| 20260508074531 | 3 | 95 | 0.0 | 0.0 | 0.00 | 0.00 | 0.00 | 99 | 999.5 |
| 20260508074331 | 3 | 95 | 0.0 | 0.0 | 0.00 | 0.00 | 0.00 | 99 | 999.6 |
| 20260508074131 | 3 | 95 | 0.0 | 0.0 | 0.00 | 0.00 | 0.00 | 99 | 999.5 |
| 20260508073931 | 3 | 95 | 0.0 | 0.0 | 0.00 | 0.00 | 0.00 | 99 | 999.5 |
| 20260508073731 | 3 | 95 | 0.0 | 0.0 | 0.00 | 0.00 | 0.00 | 99 | 999.3 |
| 20260508073531 | 3 | 95 | 0.0 | 0.0 | 0.00 | 0.00 | 0.00 | 99 | 999.4 |
| 20260508073331 | 3 | 95 | 0.0 | 0.0 | 0.00 | 0.00 | 0.00 | 99 | 999.5 |
| 20260508073131 | 3 | 95 | 0.0 | 0.0 | 0.00 | 0.00 | 0.00 | 99 | 999.6 |
| 20260508072931 | 3 | 95 | 0.0 | 0.0 | 0.00 | 0.00 | 0.00 | 99 | 999.5 |
| 20260508072731 | 3 | 95 | 0.0 | 0.0 | 0.00 | 0.00 | 0.00 | 99 | 999.6 |
| 20260508072531 | 3 | 95 | 0.0 | 0.0 | 0.00 | 0.00 | 0.00 | 99 | 999.7 |
| 20260508072331 | 3 | 95 | 0.0 | 0.0 | 0.00 | 0.00 | 0.00 | 99 | 999.5 |
| 20260508072131 | 3 | 95 | 0.0 | 0.0 | 0.00 | 0.00 | 0.00 | 99 | 999.4 |
| 20260508071931 | 3 | 95 | 0.0 | 0.0 | 0.00 | 0.00 | 0.00 | 99 | 999.4 |
| 20260508071731 | 3 | 95 | 0.0 | 0.0 | 0.00 | 0.00 | 0.00 | 98 | 999.4 |
| 20260508071531 | 3 | 95 | 0.0 | 0.0 | 0.00 | 0.00 | 0.00 | 99 | 999.4 |
| 20260508070931 | 3 | 95 | 0.0 | 0.0 | 0.00 | 0.00 | 0.00 | 98 | 999.4 |
| 20260508070531 | 3 | 95 | 0.0 | 0.0 | 0.00 | 0.00 | 0.00 | 98 | 999.6 |
| 20260508070131 | 3 | 95 | 0.0 | 0.0 | 0.00 | 0.00 | 0.00 | 98 | 999.7 |
| 20260508065931 | 3 | 95 | 0.0 | 0.0 | 0.00 | 0.00 | 0.00 | 99 | 1000.0 |
| 20260508065731 | 3 | 95 | 0.0 | 0.0 | 0.00 | 0.00 | 0.00 | 98 | 999.9 |
| 20260508065131 | 3 | 95 | 0.0 | 0.0 | 0.00 | 0.00 | 0.00 | 98 | 999.9 |
| 20260508064930 | 3 | 95 | 0.0 | 0.0 | 0.00 | 0.00 | 0.00 | 99 | 999.8 |
| 20260508064731 | 3 | 95 | 0.0 | 0.0 | 0.00 | 0.00 | 0.00 | 98 | 999.6 |
| 20260508064531 | 3 | 95 | 0.0 | 0.0 | 0.00 | 0.00 | 0.00 | 98 | 999.6 |
| 20260508064131 | 4 | 95 | 0.0 | 0.0 | 0.00 | 0.00 | 0.00 | 98 | 999.5 |
| 20260508063931 | 4 | 95 | 0.0 | 0.0 | 0.00 | 0.00 | 0.00 | 98 | 999.5 |
| 20260508063731 | 4 | 95 | 0.0 | 0.0 | 0.00 | 0.00 | 0.00 | 98 | 999.5 |
| 20260508063531 | 4 | 95 | 0.0 | 0.0 | 0.00 | 0.00 | 0.00 | 98 | 999.4 |
| 20260508063331 | 4 | 95 | 0.0 | 0.0 | 0.00 | 0.00 | 0.00 | 98 | 999.5 |
| 20260508063131 | 4 | 95 | 0.0 | 0.0 | 0.00 | 0.00 | 0.00 | 98 | 999.5 |
| 20260508062931 | 4 | 95 | 0.0 | 0.0 | 0.00 | 0.00 | 0.00 | 98 | 999.6 |
| 20260508062731 | 4 | 95 | 0.0 | 0.0 | 0.00 | 0.00 | 0.00 | 98 | 999.7 |
| 20260508062331 | 4 | 95 | 0.0 | 0.0 | 0.00 | 0.00 | 0.00 | 98 | 999.8 |
| 20260508061931 | 4 | 95 | 0.0 | 0.0 | 0.00 | 0.00 | 0.00 | 98 | 999.8 |
| 20260508061731 | 4 | 95 | 0.0 | 0.0 | 0.00 | 0.00 | 0.00 | 98 | 999.6 |
| 20260508061531 | 4 | 95 | 0.0 | 0.0 | 0.00 | 0.00 | 0.00 | 98 | 999.6 |
| 20260508061331 | 4 | 95 | 0.0 | 0.0 | 0.00 | 0.00 | 0.00 | 98 | 999.5 |
| 20260508061131 | 4 | 95 | 0.0 | 0.0 | 0.00 | 0.00 | 0.00 | 98 | 999.5 |
| 20260508060931 | 4 | 95 | 0.0 | 0.0 | 0.00 | 0.00 | 0.00 | 98 | 999.5 |
| 20260508060731 | 5 | 95 | 0.0 | 0.0 | 0.00 | 0.00 | 0.00 | 98 | 999.4 |
| 20260508060531 | 5 | 95 | 0.0 | 0.0 | 0.00 | 0.00 | 0.00 | 98 | 999.5 |
| 20260508060331 | 5 | 95 | 0.0 | 0.0 | 0.00 | 0.00 | 0.00 | 98 | 999.7 |
| 20260508060131 | 5 | 95 | 0.0 | 0.0 | 0.00 | 0.00 | 0.00 | 98 | 999.6 |
| 20260508055930 | 5 | 95 | 0.0 | 0.0 | 0.00 | 0.00 | 0.00 | 98 | 999.5 |
| 20260508055730 | 5 | 95 | 0.0 | 0.0 | 0.00 | 0.00 | 0.00 | 98 | 999.7 |
| 20260508055330 | 5 | 95 | 0.0 | 0.0 | 0.00 | 0.00 | 0.00 | 98 | 999.6 |
| 20260508055131 | 5 | 95 | 0.0 | 0.0 | 0.00 | 0.00 | 0.00 | 98 | 999.5 |
| 20260508054930 | 5 | 95 | 0.0 | 0.0 | 0.00 | 0.00 | 0.00 | 98 | 999.5 |
| 20260508054731 | 5 | 95 | 0.0 | 0.0 | 0.00 | 0.00 | 0.00 | 98 | 999.5 |
| 20260508054530 | 5 | 95 | 0.0 | 0.0 | 0.00 | 0.00 | 0.00 | 98 | 999.5 |
| 20260508054330 | 5 | 95 | 0.0 | 0.0 | 0.00 | 0.00 | 0.00 | 98 | 999.1 |
| 20260508053931 | 5 | 95 | 0.0 | 0.0 | 0.00 | 0.00 | 0.00 | 98 | 999.7 |
| 20260508053731 | 5 | 95 | 0.0 | 0.0 | 0.00 | 0.00 | 0.00 | 98 | 999.7 |
| 20260508053531 | 5 | 95 | 0.0 | 0.0 | 0.00 | 0.00 | 0.00 | 98 | 999.7 |
| 20260508053331 | 5 | 95 | 0.0 | 0.0 | 0.00 | 0.00 | 0.00 | 98 | 999.8 |
| 20260508053131 | 5 | 95 | 0.0 | 0.0 | 0.00 | 0.00 | 0.00 | 98 | 999.8 |
| 20260508052931 | 5 | 95 | 0.0 | 0.0 | 0.00 | 0.00 | 0.00 | 98 | 999.8 |
| 20260508052731 | 5 | 95 | 0.0 | 0.0 | 0.00 | 0.00 | 0.00 | 98 | 1000.0 |
| 20260508052531 | 5 | 95 | 0.0 | 0.0 | 0.00 | 0.00 | 0.00 | 98 | 1000.2 |
| 20260508052331 | 5 | 95 | 0.0 | 0.0 | 0.00 | 0.00 | 0.00 | 98 | 1000.0 |
| 20260508052131 | 5 | 95 | 0.0 | 0.0 | 0.00 | 0.00 | 0.00 | 98 | 1000.0 |
| 20260508051931 | 5 | 95 | 0.0 | 0.0 | 0.00 | 0.00 | 0.00 | 98 | 999.9 |
| 20260508051731 | 5 | 95 | 0.0 | 0.0 | 0.00 | 0.00 | 0.00 | 98 | 999.8 |
| 20260508051532 | 5 | 95 | 0.0 | 0.0 | 0.00 | 0.00 | 0.00 | 98 | 1000.1 |
| 20260508051331 | 5 | 95 | 0.0 | 0.0 | 0.00 | 0.00 | 0.00 | 98 | 999.9 |
| 20260508050931 | 6 | 95 | 0.0 | 0.0 | 0.00 | 0.00 | 0.00 | 98 | 999.9 |
| 20260508050731 | 6 | 95 | 0.0 | 0.0 | 0.00 | 0.00 | 0.00 | 98 | 999.9 |
| 20260508050531 | 6 | 95 | 0.0 | 0.0 | 0.00 | 0.00 | 0.00 | 98 | 1000.1 |
| 20260508050330 | 6 | 95 | 0.0 | 0.0 | 0.00 | 0.00 | 0.00 | 98 | 999.9 |
| 20260508050131 | 6 | 95 | 0.0 | 0.0 | 0.00 | 0.00 | 0.00 | 98 | 1000.0 |
| 20260508045930 | 6 | 95 | 0.0 | 0.0 | 0.00 | 0.00 | 0.00 | 98 | 1000.0 |
| 20260508045731 | 6 | 95 | 0.0 | 0.0 | 0.00 | 0.00 | 0.00 | 98 | 999.8 |
| 20260508045530 | 6 | 95 | 0.0 | 0.0 | 0.00 | 0.00 | 0.00 | 98 | 1000.0 |
| 20260508045330 | 6 | 95 | 0.0 | 0.0 | 0.00 | 0.00 | 0.00 | 98 | 1000.1 |
| 20260508045130 | 6 | 95 | 0.0 | 0.0 | 0.00 | 0.00 | 0.00 | 98 | 1000.1 |
| 20260508044930 | 6 | 95 | 0.0 | 0.0 | 0.00 | 0.00 | 0.00 | 98 | 1000.0 |
| 20260508044730 | 6 | 95 | 0.0 | 0.0 | 0.00 | 0.00 | 0.00 | 98 | 1000.3 |
| 20260508044530 | 6 | 95 | 0.0 | 0.0 | 0.00 | 0.00 | 0.00 | 98 | 1000.1 |
| 20260508043931 | 6 | 95 | 0.0 | 0.0 | 0.00 | 0.00 | 0.00 | 98 | 999.9 |
| 20260508043531 | 6 | 95 | 0.0 | 0.0 | 0.00 | 0.00 | 0.00 | 98 | 1000.0 |
| 20260508043331 | 6 | 95 | 0.0 | 0.0 | 0.00 | 0.00 | 0.00 | 98 | 1000.3 |
| 20260508042931 | 6 | 95 | 0.0 | 0.0 | 0.00 | 0.00 | 0.00 | 98 | 1000.2 |
| 20260508042731 | 6 | 95 | 0.0 | 0.0 | 0.00 | 0.00 | 0.00 | 98 | 1000.3 |
| 20260508042531 | 6 | 95 | 0.0 | 0.0 | 0.00 | 0.00 | 0.00 | 98 | 1000.3 |
| 20260508042331 | 6 | 95 | 0.0 | 0.0 | 0.00 | 0.00 | 0.00 | 98 | 1000.2 |
| 20260508042131 | 6 | 95 | 0.0 | 0.0 | 0.00 | 0.00 | 0.00 | 98 | 1000.1 |
| 20260508041931 | 6 | 95 | 0.0 | 0.0 | 0.00 | 0.00 | 0.00 | 98 | 1000.2 |
| 20260508041731 | 6 | 95 | 0.0 | 0.0 | 0.00 | 0.00 | 0.00 | 98 | 1000.1 |
| 20260508041531 | 6 | 95 | 0.0 | 0.0 | 0.00 | 0.00 | 0.00 | 98 | 1000.1 |
| 20260508041331 | 6 | 95 | 0.0 | 0.0 | 0.00 | 0.00 | 0.00 | 97 | 1000.1 |
| 20260508041131 | 6 | 95 | 0.0 | 0.0 | 0.00 | 0.00 | 0.00 | 97 | 1000.3 |
| 20260508040931 | 6 | 95 | 0.0 | 0.0 | 0.00 | 0.00 | 0.00 | 97 | 1000.1 |
| 20260508040733 | 6 | 95 | 0.0 | 0.0 | 0.00 | 0.00 | 0.00 | 97 | 1000.0 |
| 20260508040531 | 6 | 95 | 0.0 | 0.0 | 0.00 | 0.00 | 0.00 | 97 | 1000.0 |
| 20260508040330 | 6 | 95 | 0.0 | 0.0 | 0.00 | 0.00 | 0.00 | 97 | 1000.2 |
| 20260508040130 | 6 | 95 | 0.0 | 0.0 | 0.00 | 0.00 | 0.00 | 97 | 1000.1 |
| 20260508035930 | 6 | 95 | 0.0 | 0.0 | 0.00 | 0.00 | 0.00 | 97 | 1000.0 |
| 20260508035730 | 6 | 95 | 0.0 | 0.0 | 0.00 | 0.00 | 0.00 | 97 | 1000.0 |
| 20260508035330 | 7 | 95 | 0.0 | 0.0 | 0.00 | 0.00 | 0.00 | 97 | 1000.1 |
| 20260508035130 | 7 | 95 | 0.0 | 0.0 | 0.00 | 0.00 | 0.00 | 97 | 1000.0 |
| 20260508034930 | 7 | 95 | 0.0 | 0.0 | 0.00 | 0.00 | 0.00 | 97 | 999.9 |
| 20260508034731 | 7 | 95 | 0.0 | 0.0 | 0.00 | 0.00 | 0.00 | 97 | 1000.2 |
| 20260508034530 | 7 | 95 | 0.0 | 0.0 | 0.00 | 0.00 | 0.00 | 97 | 1000.1 |
| 20260508034330 | 7 | 95 | 0.0 | 0.0 | 0.00 | 0.00 | 0.00 | 97 | 999.7 |
| 20260508034130 | 7 | 95 | 0.0 | 0.0 | 0.00 | 0.00 | 0.00 | 97 | 999.8 |
| 20260508033931 | 7 | 95 | 0.0 | 0.0 | 0.00 | 0.00 | 0.00 | 97 | 999.9 |
| 20260508033531 | 7 | 95 | 0.0 | 0.0 | 0.00 | 0.00 | 0.00 | 97 | 999.8 |
| 20260508033331 | 7 | 95 | 0.0 | 0.0 | 0.00 | 0.00 | 0.00 | 97 | 1000.0 |
| 20260508033131 | 7 | 95 | 0.0 | 0.0 | 0.00 | 0.00 | 0.00 | 97 | 1000.0 |
| 20260508032931 | 7 | 95 | 0.0 | 0.0 | 0.00 | 0.00 | 0.00 | 97 | 1000.2 |
| 20260508032731 | 7 | 95 | 0.0 | 0.0 | 0.00 | 0.00 | 0.00 | 97 | 1000.0 |
| 20260508032531 | 7 | 95 | 0.0 | 0.0 | 0.00 | 0.00 | 0.00 | 97 | 1000.2 |
| 20260508032331 | 7 | 95 | 0.0 | 0.0 | 0.00 | 0.00 | 0.00 | 97 | 1000.2 |
| 20260508032131 | 7 | 95 | 0.0 | 0.0 | 0.00 | 0.00 | 0.00 | 97 | 1000.1 |
| 20260508031931 | 7 | 95 | 0.0 | 0.0 | 0.00 | 0.00 | 0.00 | 97 | 1000.3 |
| 20260508031731 | 7 | 95 | 0.0 | 0.0 | 0.00 | 0.00 | 0.00 | 97 | 1000.3 |
| 20260508031531 | 7 | 95 | 0.0 | 0.0 | 0.00 | 0.00 | 0.00 | 97 | 1000.1 |
| 20260508031331 | 7 | 95 | 0.0 | 0.0 | 0.00 | 0.00 | 0.00 | 97 | 1000.2 |
| 20260508031131 | 7 | 95 | 0.0 | 0.0 | 0.00 | 0.00 | 0.00 | 97 | 1000.1 |
| 20260508030931 | 7 | 95 | 0.0 | 0.0 | 0.00 | 0.00 | 0.00 | 97 | 1000.3 |
| 20260508030730 | 7 | 95 | 0.0 | 0.0 | 0.00 | 0.00 | 0.00 | 96 | 1000.1 |
| 20260508030531 | 7 | 95 | 0.0 | 0.0 | 0.00 | 0.00 | 0.00 | 96 | 1000.6 |
| 20260508030330 | 7 | 95 | 0.0 | 0.0 | 0.00 | 0.00 | 0.00 | 96 | 1000.3 |
| 20260508030130 | 7 | 95 | 0.0 | 0.0 | 0.00 | 0.00 | 0.00 | 96 | 1000.3 |
| 20260508025930 | 7 | 95 | 0.0 | 0.0 | 0.00 | 2.51 | 0.00 | 96 | 1000.2 |
| 20260508025730 | 7 | 95 | 0.0 | 0.0 | 0.00 | 2.51 | 0.00 | 96 | 1000.1 |
| 20260508025530 | 7 | 95 | 0.0 | 0.0 | 0.00 | 2.51 | 0.00 | 96 | 1000.4 |
| 20260508025330 | 7 | 95 | 0.0 | 0.0 | 0.00 | 2.51 | 0.00 | 96 | 1000.3 |
| 20260508025130 | 7 | 95 | 0.0 | 0.0 | 0.00 | 2.51 | 0.00 | 96 | 1000.6 |
| 20260508024930 | 7 | 95 | 0.0 | 0.0 | 0.00 | 2.51 | 0.00 | 96 | 1000.4 |
| 20260508024130 | 7 | 95 | 0.0 | 0.0 | 0.00 | 2.51 | 0.00 | 96 | 1000.3 |
| 20260508023931 | 7 | 95 | 0.0 | 1.6 | 0.00 | 2.51 | 0.00 | 96 | 1000.4 |
| 20260508023731 | 7 | 95 | 0.0 | 0.0 | 0.00 | 2.51 | 0.00 | 96 | 1000.4 |
| 20260508023331 | 7 | 95 | 0.0 | 0.0 | 0.00 | 2.51 | 0.00 | 96 | 1000.5 |
| 20260508023131 | 7 | 95 | 0.0 | 0.0 | 0.00 | 2.51 | 0.00 | 96 | 1000.3 |
| 20260508022931 | 7 | 95 | 0.0 | 0.0 | 0.00 | 2.51 | 0.00 | 96 | 1000.5 |
| 20260508022731 | 7 | 95 | 0.0 | 0.0 | 0.00 | 2.51 | 0.00 | 96 | 1000.5 |
| 20260508022531 | 7 | 95 | 0.0 | 0.0 | 0.00 | 2.51 | 0.00 | 97 | 1000.4 |
| 20260508022331 | 7 | 95 | 0.0 | 0.0 | 0.00 | 2.51 | 0.00 | 97 | 1000.4 |
| 20260508021930 | 7 | 95 | 0.0 | 0.0 | 0.00 | 2.51 | 0.00 | 97 | 1000.5 |
| 20260508021730 | 8 | 95 | 0.0 | 0.0 | 0.00 | 2.51 | 0.00 | 97 | 1000.7 |
| 20260508021531 | 8 | 95 | 0.0 | 0.0 | 0.00 | 2.51 | 0.00 | 97 | 1000.5 |
| 20260508021130 | 8 | 95 | 0.0 | 0.0 | 0.00 | 2.51 | 0.00 | 96 | 1000.7 |
| 20260508020931 | 8 | 95 | 0.0 | 0.0 | 0.00 | 2.51 | 0.00 | 96 | 1000.7 |
| 20260508020730 | 8 | 95 | 0.0 | 0.0 | 0.00 | 2.51 | 0.00 | 96 | 1000.6 |
| 20260508020330 | 8 | 95 | 0.0 | 0.0 | 0.00 | 2.51 | 0.00 | 96 | 1000.3 |
| 20260508020130 | 8 | 95 | 0.0 | 0.0 | 0.00 | 2.51 | 0.00 | 96 | 1000.5 |
| 20260508015930 | 8 | 95 | 0.0 | 0.0 | 0.00 | 2.51 | 0.00 | 96 | 1000.6 |
| 20260508015731 | 8 | 95 | 0.0 | 0.0 | 0.00 | 2.51 | 0.00 | 96 | 1000.4 |
| 20260508015530 | 8 | 95 | 0.0 | 0.0 | 0.00 | 2.51 | 0.00 | 96 | 1000.8 |
| 20260508015330 | 8 | 95 | 0.0 | 0.0 | 0.00 | 2.51 | 0.00 | 96 | 1000.7 |
| 20260508015130 | 8 | 95 | 0.0 | 0.0 | 0.00 | 2.51 | 0.00 | 96 | 1000.6 |
| 20260508014930 | 8 | 95 | 0.0 | 0.0 | 0.00 | 2.51 | 0.00 | 96 | 1000.6 |
| 20260508014530 | 8 | 95 | 0.0 | 0.0 | 0.00 | 2.51 | 0.00 | 96 | 1000.7 |
| 20260508014330 | 8 | 95 | 0.0 | 0.0 | 0.00 | 2.51 | 0.00 | 95 | 1000.8 |
| 20260508014130 | 8 | 95 | 0.0 | 0.0 | 0.00 | 2.51 | 0.00 | 95 | 1000.8 |
| 20260508013930 | 8 | 95 | 0.0 | 0.0 | 0.00 | 2.51 | 0.00 | 95 | 1000.7 |
| 20260508013730 | 8 | 95 | 0.0 | 0.0 | 0.00 | 2.51 | 0.00 | 95 | 1000.7 |
| 20260508013330 | 8 | 95 | 0.0 | 0.0 | 0.00 | 2.51 | 0.00 | 95 | 1000.5 |
| 20260508013130 | 8 | 95 | 0.0 | 0.0 | 0.00 | 2.51 | 0.00 | 95 | 1000.6 |
| 20260508012930 | 8 | 95 | 0.0 | 0.0 | 0.00 | 2.51 | 0.00 | 95 | 1000.6 |
| 20260508012730 | 8 | 95 | 0.0 | 0.0 | 0.00 | 2.51 | 0.00 | 94 | 1000.6 |
| 20260508012530 | 8 | 95 | 0.0 | 0.0 | 0.00 | 2.51 | 0.00 | 94 | 1000.9 |
| 20260508012330 | 8 | 95 | 0.0 | 1.6 | 0.00 | 2.51 | 0.00 | 94 | 1000.6 |
| 20260508012130 | 8 | 95 | 0.0 | 0.0 | 0.00 | 2.51 | 0.00 | 94 | 1000.7 |
| 20260508011930 | 8 | 95 | 0.0 | 0.0 | 0.00 | 2.51 | 0.00 | 94 | 1000.6 |
| 20260508011730 | 9 | 95 | 0.0 | 0.0 | 0.00 | 2.51 | 0.00 | 94 | 1000.6 |
| 20260508011330 | 9 | 95 | 0.0 | 1.6 | 0.00 | 2.51 | 0.00 | 94 | 1000.5 |
| 20260508011130 | 9 | 95 | 0.0 | 0.0 | 0.00 | 2.51 | 0.00 | 93 | 1000.4 |
| 20260508010930 | 9 | 95 | 0.0 | 1.6 | 0.00 | 2.51 | 0.00 | 93 | 1000.3 |
| 20260508010730 | 9 | 95 | 0.0 | 1.6 | 0.00 | 2.51 | 0.00 | 93 | 1000.4 |
| 20260508010330 | 9 | 95 | 0.0 | 1.6 | 0.00 | 2.51 | 0.00 | 93 | 1000.4 |
| 20260508005930 | 9 | 95 | 0.0 | 1.6 | 0.00 | 2.51 | 0.00 | 93 | 1000.2 |
| 20260508005730 | 9 | 95 | 0.0 | 1.6 | 0.00 | 2.51 | 0.00 | 93 | 1000.2 |
| 20260508005530 | 9 | 95 | 1.6 | 1.6 | 0.00 | 2.51 | 0.00 | 93 | 1000.2 |
| 20260508005330 | 10 | 95 | 0.0 | 1.6 | 0.00 | 2.51 | 0.00 | 93 | 1000.3 |
| 20260508005130 | 10 | 95 | 0.0 | 0.0 | 0.00 | 2.51 | 0.00 | 93 | 1000.2 |
| 20260508004930 | 10 | 95 | 1.6 | 3.2 | 0.00 | 2.51 | 0.00 | 92 | 1000.4 |
| 20260508004730 | 10 | 95 | 0.0 | 1.6 | 0.00 | 2.51 | 0.00 | 92 | 1000.2 |
| 20260508004530 | 10 | 95 | 1.6 | 3.2 | 0.00 | 2.51 | 0.00 | 92 | 1000.4 |
| 20260508004330 | 10 | 96 | 1.6 | 1.6 | 0.00 | 2.51 | 0.00 | 92 | 1000.3 |
| 20260508004130 | 10 | 96 | 1.6 | 3.2 | 0.00 | 2.51 | 0.00 | 92 | 1000.4 |
| 20260508003929 | 10 | 127 | 1.6 | 1.6 | 0.00 | 2.51 | 0.00 | 92 | 1000.2 |
| 20260508003530 | 10 | 101 | 1.6 | 3.2 | 0.00 | 2.51 | 0.00 | 93 | 1000.2 |
| 20260508003330 | 10 | 111 | 3.2 | 3.2 | 0.00 | 2.51 | 0.00 | 94 | 1000.0 |
| 20260508003130 | 10 | 118 | 3.2 | 3.2 | 0.00 | 2.51 | 0.00 | 95 | 999.9 |
| 20260508002929 | 10 | 133 | 1.6 | 3.2 | 0.00 | 2.51 | 0.00 | 95 | 999.9 |
| 20260508002729 | 10 | 101 | 1.6 | 6.4 | 0.00 | 2.51 | 0.00 | 96 | 1000.1 |
| 20260508002529 | 10 | 93 | 1.6 | 3.2 | 0.00 | 2.51 | 0.00 | 96 | 1000.0 |
| 20260508002329 | 10 | 93 | 1.6 | 3.2 | 0.00 | 2.51 | 0.00 | 96 | 999.7 |
| 20260508002130 | 10 | 95 | 1.6 | 3.2 | 0.00 | 2.51 | 0.00 | 97 | 999.8 |
| 20260508001929 | 10 | 110 | 1.6 | 4.8 | 0.00 | 2.51 | 0.00 | 97 | 1000.2 |
| 20260508001729 | 10 | 82 | 4.8 | 9.7 | 0.00 | 2.51 | 0.00 | 97 | 999.9 |
| 20260508001530 | 10 | 88 | 0.0 | 4.8 | 0.00 | 2.51 | 0.00 | 97 | 999.9 |
| 20260508001129 | 10 | 92 | 0.0 | 1.6 | 0.00 | 2.51 | 0.00 | 97 | 999.9 |
| 20260508000929 | 10 | 92 | 0.0 | 0.0 | 0.00 | 2.51 | 0.00 | 97 | 999.8 |
| 20260508000729 | 10 | 92 | 1.6 | 1.6 | 0.00 | 2.51 | 0.00 | 97 | 999.8 |
| 20260508000529 | 10 | 92 | 0.0 | 0.0 | 0.00 | 2.51 | 0.00 | 96 | 999.7 |
| 20260508000330 | 10 | 92 | 0.0 | 0.0 | 0.00 | 2.51 | 0.00 | 96 | 999.7 |
| 20260508000130 | 10 | 92 | 0.0 | 0.0 | 0.00 | 2.51 | 0.00 | 96 | 999.7 |
| 20260507235930 | 10 | 92 | 0.0 | 0.0 | 0.00 | 2.51 | 0.00 | 96 | 999.8 |
| 20260507235729 | 11 | 92 | 0.0 | 0.0 | 0.00 | 2.51 | 0.00 | 96 | 999.7 |
| 20260507235530 | 11 | 92 | 0.0 | 0.0 | 0.00 | 2.51 | 0.00 | 96 | 999.6 |
| 20260507235329 | 11 | 92 | 0.0 | 0.0 | 0.00 | 2.51 | 0.00 | 96 | 999.6 |
| 20260507234929 | 11 | 92 | 0.0 | 0.0 | 0.00 | 2.51 | 0.00 | 96 | 999.7 |
| 20260507234730 | 11 | 92 | 0.0 | 0.0 | 0.00 | 2.51 | 0.00 | 96 | 999.6 |
| 20260507234329 | 11 | 92 | 0.0 | 0.0 | 0.00 | 2.51 | 0.00 | 95 | 999.7 |
| 20260507234129 | 11 | 92 | 0.0 | 0.0 | 0.00 | 2.51 | 0.00 | 95 | 999.8 |
| 20260507233929 | 11 | 92 | 0.0 | 0.0 | 0.00 | 2.51 | 0.00 | 95 | 999.7 |
| 20260507233729 | 11 | 92 | 0.0 | 0.0 | 0.00 | 2.51 | 0.00 | 95 | 999.6 |
| 20260507233529 | 11 | 92 | 0.0 | 0.0 | 0.00 | 2.51 | 0.00 | 95 | 999.7 |
| 20260507233329 | 11 | 92 | 0.0 | 0.0 | 0.00 | 2.51 | 0.00 | 95 | 999.7 |
| 20260507233129 | 11 | 92 | 0.0 | 0.0 | 0.00 | 2.51 | 0.00 | 94 | 999.6 |
| 20260507232929 | 11 | 92 | 0.0 | 0.0 | 0.00 | 2.51 | 0.00 | 94 | 999.5 |
| 20260507232729 | 11 | 92 | 0.0 | 0.0 | 0.00 | 2.51 | 0.00 | 94 | 999.7 |
| 20260507232529 | 11 | 92 | 0.0 | 0.0 | 0.00 | 2.51 | 0.00 | 94 | 999.5 |
| 20260507232330 | 11 | 92 | 0.0 | 0.0 | 0.00 | 2.51 | 0.00 | 94 | 999.5 |
| 20260507232129 | 11 | 92 | 0.0 | 0.0 | 0.00 | 2.51 | 0.00 | 94 | 999.6 |
| 20260507231929 | 11 | 92 | 0.0 | 0.0 | 0.00 | 2.51 | 0.00 | 94 | 999.6 |
| 20260507231729 | 11 | 92 | 0.0 | 0.0 | 0.00 | 2.51 | 0.00 | 94 | 999.5 |
| 20260507231529 | 12 | 92 | 0.0 | 0.0 | 0.00 | 2.51 | 0.00 | 94 | 999.5 |
| 20260507231329 | 11 | 92 | 0.0 | 0.0 | 0.00 | 2.51 | 0.00 | 94 | 999.5 |
| 20260507231130 | 11 | 92 | 0.0 | 0.0 | 0.00 | 2.51 | 0.00 | 94 | 999.6 |
| 20260507230929 | 11 | 92 | 0.0 | 0.0 | 0.00 | 2.51 | 0.00 | 94 | 999.5 |
| 20260507230729 | 11 | 92 | 0.0 | 0.0 | 0.00 | 2.51 | 0.00 | 94 | 999.6 |
| 20260507230529 | 11 | 92 | 0.0 | 0.0 | 0.00 | 2.51 | 0.00 | 95 | 999.5 |
| 20260507230329 | 11 | 92 | 0.0 | 0.0 | 0.00 | 2.51 | 0.00 | 95 | 999.5 |
| 20260507225930 | 11 | 92 | 0.0 | 0.0 | 0.00 | 2.51 | 0.00 | 95 | 999.4 |
| 20260507225730 | 11 | 92 | 0.0 | 0.0 | 0.00 | 2.51 | 0.00 | 96 | 999.5 |
| 20260507225529 | 11 | 92 | 0.0 | 0.0 | 0.00 | 2.51 | 0.00 | 96 | 999.5 |
| 20260507225329 | 11 | 92 | 0.0 | 0.0 | 0.00 | 2.51 | 0.00 | 96 | 999.4 |
| 20260507224929 | 11 | 92 | 0.0 | 0.0 | 0.00 | 2.51 | 0.00 | 96 | 999.5 |
| 20260507224729 | 11 | 91 | 0.0 | 0.0 | 0.00 | 2.51 | 0.00 | 96 | 999.6 |
| 20260507224529 | 11 | 92 | 0.0 | 0.0 | 0.00 | 2.51 | 0.00 | 96 | 999.4 |
| 20260507224330 | 11 | 91 | 0.0 | 0.0 | 0.00 | 2.51 | 0.00 | 95 | 999.4 |
| 20260507224129 | 11 | 91 | 0.0 | 0.0 | 0.00 | 2.51 | 0.00 | 95 | 999.3 |
| 20260507223929 | 11 | 91 | 0.0 | 1.6 | 0.00 | 2.51 | 0.00 | 95 | 999.5 |
| 20260507223529 | 11 | 91 | 0.0 | 0.0 | 0.00 | 2.51 | 0.00 | 95 | 999.4 |
| 20260507223329 | 11 | 91 | 0.0 | 0.0 | 0.00 | 2.51 | 0.00 | 95 | 999.6 |
| 20260507223129 | 11 | 91 | 1.6 | 1.6 | 0.00 | 2.51 | 0.00 | 95 | 999.2 |
| 20260507222929 | 11 | 91 | 1.6 | 1.6 | 0.00 | 2.51 | 0.00 | 95 | 999.6 |
| 20260507222729 | 11 | 92 | 1.6 | 1.6 | 0.00 | 2.51 | 0.00 | 96 | 999.4 |
| 20260507222529 | 11 | 92 | 1.6 | 3.2 | 0.00 | 2.51 | 0.00 | 96 | 999.4 |
| 20260507222330 | 11 | 91 | 3.2 | 3.2 | 0.00 | 2.51 | 0.00 | 96 | 999.6 |
| 20260507222130 | 11 | 100 | 4.8 | 4.8 | 0.00 | 2.51 | 0.00 | 96 | 999.8 |
| 20260507221729 | 11 | 91 | 4.8 | 6.4 | 0.00 | 2.51 | 0.00 | 96 | 999.7 |
| 20260507221529 | 11 | 86 | 4.8 | 4.8 | 0.00 | 2.51 | 0.00 | 96 | 999.8 |
| 20260507221329 | 11 | 105 | 1.6 | 1.6 | 0.00 | 2.51 | 0.00 | 96 | 999.8 |
| 20260507220929 | 11 | 89 | 1.6 | 3.2 | 0.00 | 2.51 | 0.00 | 96 | 999.8 |
| 20260507220529 | 11 | 90 | 0.0 | 1.6 | 0.00 | 2.51 | 0.00 | 96 | 999.7 |
| 20260507220329 | 11 | 90 | 1.6 | 3.2 | 0.00 | 2.51 | 0.00 | 96 | 999.7 |
| 20260507220130 | 11 | 114 | 1.6 | 1.6 | 0.00 | 2.51 | 0.00 | 96 | 999.6 |
| 20260507215729 | 11 | 113 | 1.6 | 3.2 | 0.00 | 2.51 | 0.00 | 96 | 999.8 |
| 20260507215529 | 11 | 79 | 1.6 | 3.2 | 0.00 | 2.51 | 0.00 | 95 | 999.7 |
| 20260507215129 | 11 | 70 | 3.2 | 1.6 | 0.00 | 2.51 | 0.00 | 95 | 999.5 |
| 20260507214730 | 12 | 81 | 1.6 | 6.4 | 0.00 | 2.51 | 0.00 | 95 | 999.4 |
| 20260507214530 | 12 | 25 | 1.6 | 1.6 | 0.00 | 2.51 | 0.00 | 95 | 999.6 |
| 20260507214329 | 12 | 24 | 1.6 | 3.2 | 0.00 | 2.51 | 0.00 | 95 | 999.4 |
| 20260507214129 | 12 | 23 | 1.6 | 1.6 | 0.00 | 2.51 | 0.00 | 95 | 999.2 |
| 20260507213930 | 12 | 23 | 1.6 | 3.2 | 0.00 | 2.51 | 0.00 | 95 | 999.4 |
| 20260507213530 | 12 | 23 | 1.6 | 1.6 | 0.00 | 2.51 | 0.00 | 94 | 999.4 |
| 20260507213330 | 12 | 358 | 1.6 | 3.2 | 0.00 | 2.51 | 0.00 | 95 | 999.4 |
| 20260507213130 | 12 | 357 | 0.0 | 1.6 | 0.00 | 2.51 | 0.00 | 95 | 999.3 |
| 20260507212930 | 12 | 358 | 0.0 | 1.6 | 0.00 | 2.51 | 0.00 | 95 | 999.1 |
| 20260507212730 | 12 | 358 | 1.6 | 1.6 | 0.00 | 2.51 | 0.00 | 95 | 999.2 |
| 20260507212530 | 12 | 358 | 0.0 | 1.6 | 0.00 | 2.51 | 0.00 | 95 | 999.2 |
| 20260507212330 | 12 | 358 | 0.0 | 1.6 | 0.00 | 2.51 | 0.00 | 95 | 999.2 |
| 20260507212130 | 12 | 357 | 1.6 | 3.2 | 0.00 | 2.51 | 0.00 | 95 | 999.2 |
| 20260507211929 | 12 | 356 | 3.2 | 3.2 | 0.00 | 2.51 | 0.00 | 95 | 999.4 |
| 20260507211729 | 12 | 0 | 0.0 | 1.6 | 0.00 | 2.51 | 0.00 | 95 | 999.2 |
| 20260507211529 | 12 | 359 | 1.6 | 1.6 | 0.00 | 2.51 | 0.00 | 94 | 999.3 |
| 20260507211330 | 12 | 357 | 1.6 | 6.4 | 0.00 | 2.51 | 0.00 | 94 | 999.3 |
| 20260507211130 | 12 | 16 | 0.0 | 1.6 | 0.00 | 2.51 | 0.00 | 94 | 999.4 |
| 20260507210530 | 12 | 7 | 1.6 | 1.6 | 0.00 | 2.51 | 0.00 | 94 | 999.2 |
| 20260507210329 | 12 | 7 | 0.0 | 3.2 | 0.00 | 2.51 | 0.00 | 94 | 999.3 |
| 20260507210129 | 12 | 16 | 1.6 | 3.2 | 0.00 | 2.51 | 0.00 | 94 | 999.2 |
| 20260507205929 | 12 | 16 | 1.6 | 3.2 | 0.00 | 2.51 | 0.00 | 94 | 999.4 |
| 20260507205729 | 12 | 16 | 0.0 | 3.2 | 0.00 | 2.51 | 0.00 | 94 | 999.4 |
| 20260507205529 | 12 | 19 | 1.6 | 4.8 | 0.00 | 2.51 | 0.00 | 94 | 999.4 |
| 20260507205329 | 12 | 356 | 0.0 | 1.6 | 0.00 | 2.51 | 0.00 | 94 | 999.5 |
| 20260507205129 | 12 | 356 | 1.6 | 3.2 | 0.00 | 2.51 | 0.00 | 94 | 999.4 |
| 20260507204929 | 12 | 354 | 1.6 | 1.6 | 0.00 | 2.51 | 0.00 | 94 | 999.4 |
| 20260507204529 | 12 | 319 | 0.0 | 1.6 | 0.00 | 2.51 | 0.00 | 94 | 999.4 |
| 20260507204329 | 12 | 319 | 0.0 | 1.6 | 0.00 | 2.51 | 0.00 | 94 | 999.5 |
| 20260507204129 | 12 | 324 | 0.0 | 6.4 | 0.00 | 2.51 | 0.00 | 94 | 999.3 |
| 20260507203929 | 12 | 8 | 3.2 | 4.8 | 0.00 | 2.51 | 0.00 | 94 | 999.3 |
| 20260507203729 | 12 | 17 | 0.0 | 3.2 | 0.00 | 2.51 | 0.00 | 94 | 999.2 |
| 20260507203529 | 12 | 313 | 0.0 | 4.8 | 0.00 | 2.51 | 0.00 | 94 | 999.1 |
| 20260507203329 | 12 | 330 | 0.0 | 1.6 | 0.00 | 2.51 | 0.00 | 94 | 999.0 |
| 20260507203129 | 12 | 310 | 0.0 | 1.6 | 0.00 | 2.51 | 0.00 | 94 | 999.1 |
| 20260507202929 | 12 | 310 | 1.6 | 4.8 | 0.00 | 2.51 | 0.00 | 94 | 999.1 |
| 20260507202529 | 12 | 330 | 1.6 | 1.6 | 0.00 | 2.51 | 0.00 | 93 | 999.2 |
| 20260507202129 | 12 | 344 | 1.6 | 3.2 | 0.00 | 2.51 | 0.00 | 93 | 998.9 |
| 20260507201929 | 12 | 359 | 1.6 | 1.6 | 0.00 | 2.51 | 0.00 | 93 | 999.3 |
| 20260507201729 | 12 | 295 | 3.2 | 3.2 | 0.00 | 2.51 | 0.00 | 93 | 999.0 |
| 20260507201329 | 12 | 352 | 1.6 | 3.2 | 0.00 | 2.51 | 0.00 | 95 | 999.4 |
| 20260507201129 | 12 | 358 | 0.0 | 0.0 | 0.00 | 2.51 | 0.00 | 95 | 999.0 |
| 20260507200929 | 12 | 358 | 0.0 | 3.2 | 0.00 | 2.51 | 0.00 | 94 | 999.3 |
| 20260507200729 | 12 | 319 | 0.0 | 0.0 | 0.00 | 2.51 | 0.00 | 94 | 999.2 |
| 20260507200529 | 12 | 319 | 3.2 | 4.8 | 0.00 | 2.51 | 0.00 | 94 | 999.3 |
| 20260507200329 | 11 | 353 | 0.0 | 3.2 | 0.00 | 2.51 | 0.00 | 94 | 999.4 |
| 20260507200129 | 11 | 345 | 0.0 | 1.6 | 0.00 | 2.51 | 0.00 | 94 | 999.3 |
| 20260507195929 | 12 | 345 | 1.6 | 3.2 | 0.00 | 2.51 | 0.00 | 94 | 999.3 |
| 20260507195529 | 11 | 319 | 1.6 | 3.2 | 0.00 | 2.51 | 0.00 | 94 | 999.1 |
| 20260507195329 | 11 | 321 | 1.6 | 3.2 | 0.00 | 2.51 | 0.00 | 94 | 999.4 |
| 20260507195129 | 11 | 355 | 1.6 | 3.2 | 0.00 | 2.51 | 0.00 | 94 | 999.4 |
| 20260507194729 | 11 | 18 | 1.6 | 6.4 | 0.00 | 2.51 | 0.00 | 96 | 999.3 |
| 20260507194529 | 11 | 5 | 1.6 | 6.4 | 0.00 | 2.51 | 0.00 | 96 | 999.4 |
| 20260507194129 | 11 | 307 | 1.6 | 1.6 | 0.00 | 2.51 | 0.00 | 96 | 999.8 |
| 20260507193929 | 11 | 311 | 6.4 | 6.4 | 0.00 | 2.51 | 0.00 | 96 | 999.6 |
| 20260507193729 | 11 | 326 | 3.2 | 9.7 | 0.00 | 2.51 | 0.00 | 96 | 999.6 |
| 20260507193529 | 11 | 311 | 4.8 | 4.8 | 0.13 | 2.51 | 0.00 | 97 | 999.5 |
| 20260507193129 | 11 | 319 | 0.0 | 1.6 | 0.13 | 2.51 | 0.00 | 97 | 999.5 |
| 20260507192929 | 11 | 319 | 1.6 | 1.6 | 0.13 | 2.51 | 0.00 | 97 | 999.6 |
| 20260507192529 | 11 | 351 | 1.6 | 3.2 | 0.00 | 2.49 | 0.00 | 97 | 999.8 |
| 20260507192329 | 11 | 303 | 0.0 | 1.6 | 0.00 | 2.49 | 0.00 | 97 | 999.6 |
| 20260507192129 | 11 | 304 | 1.6 | 4.8 | 0.00 | 2.49 | 0.00 | 97 | 999.4 |
| 20260507191929 | 11 | 321 | 0.0 | 1.6 | 0.00 | 2.49 | 0.00 | 97 | 999.6 |
| 20260507191729 | 11 | 319 | 1.6 | 6.4 | 0.00 | 2.49 | 0.00 | 96 | 999.6 |
| 20260507191529 | 10 | 283 | 3.2 | 3.2 | 0.00 | 2.49 | 0.00 | 96 | 999.5 |
| 20260507191329 | 10 | 298 | 3.2 | 3.2 | 0.00 | 2.49 | 0.00 | 96 | 999.8 |
| 20260507190929 | 10 | 44 | 3.2 | 4.8 | 0.18 | 2.49 | 0.00 | 96 | 999.5 |
| 20260507190529 | 10 | 323 | 0.0 | 3.2 | 0.18 | 2.49 | 0.00 | 97 | 999.7 |
| 20260507190329 | 10 | 44 | 1.6 | 1.6 | 0.00 | 2.46 | 0.00 | 96 | 999.7 |
| 20260507190129 | 10 | 45 | 3.2 | 6.4 | 0.00 | 2.46 | 0.00 | 96 | 999.7 |
| 20260507185929 | 10 | 356 | 3.2 | 3.2 | 0.00 | 2.46 | 0.00 | 96 | 999.6 |
| 20260507185729 | 10 | 38 | 4.8 | 6.4 | 0.00 | 2.46 | 0.00 | 96 | 999.8 |
| 20260507185529 | 10 | 56 | 1.6 | 4.8 | 0.00 | 2.46 | 0.00 | 96 | 999.9 |
| 20260507185329 | 11 | 63 | 4.8 | 9.7 | 0.00 | 2.46 | 0.00 | 96 | 999.7 |
| 20260507185129 | 11 | 13 | 3.2 | 4.8 | 0.00 | 2.46 | 0.00 | 96 | 999.9 |
| 20260507184929 | 11 | 53 | 3.2 | 3.2 | 0.00 | 2.46 | 0.00 | 96 | 999.9 |
| 20260507184729 | 11 | 24 | 1.6 | 4.8 | 0.00 | 2.46 | 0.00 | 96 | 999.7 |
| 20260507184529 | 11 | 7 | 3.2 | 4.8 | 0.00 | 2.46 | 0.00 | 96 | 999.6 |
| 20260507184329 | 11 | 7 | 1.6 | 3.2 | 0.00 | 2.46 | 0.00 | 96 | 999.6 |
| 20260507183929 | 11 | 314 | 3.2 | 4.8 | 0.00 | 2.46 | 0.00 | 96 | 999.5 |
| 20260507183529 | 11 | 328 | 1.6 | 4.8 | 0.00 | 2.46 | 0.00 | 96 | 999.6 |
| 20260507183329 | 11 | 330 | 4.8 | 9.7 | 0.00 | 2.46 | 0.00 | 96 | 999.4 |
| 20260507183129 | 11 | 321 | 3.2 | 6.4 | 0.00 | 2.46 | 0.00 | 96 | 999.5 |
| 20260507182929 | 11 | 2 | 4.8 | 6.4 | 0.00 | 2.46 | 0.00 | 96 | 999.2 |
| 20260507182729 | 11 | 317 | 1.6 | 3.2 | 0.00 | 2.46 | 0.00 | 96 | 999.2 |
| 20260507182329 | 11 | 333 | 4.8 | 11.3 | 0.00 | 2.46 | 0.00 | 96 | 999.6 |
| 20260507182129 | 11 | 352 | 1.6 | 3.2 | 0.00 | 2.46 | 0.00 | 95 | 999.4 |
| 20260507181929 | 11 | 7 | 1.6 | 6.4 | 0.00 | 2.46 | 0.00 | 95 | 999.6 |
| 20260507181729 | 11 | 16 | 1.6 | 4.8 | 0.00 | 2.46 | 0.00 | 96 | 999.4 |
| 20260507181529 | 11 | 359 | 1.6 | 4.8 | 0.00 | 2.46 | 0.00 | 96 | 999.1 |
| 20260507181329 | 11 | 307 | 4.8 | 6.4 | 0.00 | 2.46 | 0.00 | 96 | 999.1 |
| 20260507181129 | 11 | 28 | 1.6 | 6.4 | 0.00 | 2.46 | 0.00 | 96 | 999.3 |
| 20260507180729 | 11 | 37 | 3.2 | 9.7 | 0.00 | 2.46 | 0.00 | 96 | 998.8 |
| 20260507180529 | 11 | 3 | 1.6 | 3.2 | 0.00 | 2.46 | 0.00 | 96 | 998.4 |
| 20260507180329 | 11 | 244 | 0.0 | 1.6 | 0.00 | 2.46 | 0.00 | 96 | 998.0 |
| 20260507180129 | 11 | 210 | 1.6 | 1.6 | 0.00 | 2.46 | 0.00 | 96 | 997.9 |
| 20260507175929 | 11 | 175 | 0.0 | 1.6 | 0.00 | 2.46 | 0.00 | 96 | 998.2 |
| 20260507175729 | 11 | 176 | 1.6 | 1.6 | 0.00 | 2.46 | 0.00 | 96 | 998.3 |
| 20260507175529 | 11 | 169 | 0.0 | 4.8 | 0.13 | 2.46 | 0.00 | 96 | 997.8 |
| 20260507175329 | 11 | 259 | 1.6 | 16.1 | 0.13 | 2.46 | 0.00 | 97 | 997.5 |
| 20260507175129 | 11 | 266 | 1.6 | 4.8 | 0.13 | 2.46 | 0.00 | 97 | 998.0 |
| 20260507174929 | 11 | 257 | 1.6 | 6.4 | 0.13 | 2.46 | 0.00 | 97 | 998.3 |
| 20260507174729 | 11 | 233 | 3.2 | 3.2 | 0.13 | 2.46 | 0.00 | 97 | 998.4 |
| 20260507174529 | 11 | 235 | 4.8 | 4.8 | 0.18 | 2.44 | 0.00 | 97 | 998.6 |
| 20260507174329 | 11 | 268 | 1.6 | 4.8 | 0.18 | 2.44 | 0.00 | 97 | 998.5 |
| 20260507174129 | 11 | 293 | 3.2 | 6.4 | 0.18 | 2.44 | 0.00 | 97 | 998.8 |
| 20260507173929 | 11 | 286 | 1.6 | 1.6 | 0.18 | 2.44 | 0.00 | 97 | 999.0 |
| 20260507173730 | 11 | 295 | 1.6 | 3.2 | 0.18 | 2.44 | 0.00 | 97 | 999.1 |
| 20260507173529 | 11 | 294 | 1.6 | 3.2 | 0.00 | 2.41 | 0.00 | 97 | 999.2 |
| 20260507173329 | 11 | 295 | 1.6 | 1.6 | 0.00 | 2.41 | 0.00 | 97 | 999.4 |
| 20260507173129 | 11 | 294 | 3.2 | 1.6 | 0.13 | 2.41 | 0.00 | 97 | 999.3 |
| 20260507172929 | 11 | 297 | 0.0 | 1.6 | 0.13 | 2.41 | 0.00 | 97 | 999.5 |
| 20260507172329 | 11 | 316 | 1.6 | 1.6 | 0.13 | 2.41 | 0.00 | 97 | 1000.0 |
| 20260507171929 | 11 | 317 | 1.6 | 3.2 | 0.18 | 2.39 | 0.00 | 97 | 1000.0 |
| 20260507171728 | 11 | 298 | 1.6 | 1.6 | 0.18 | 2.39 | 0.00 | 97 | 1000.1 |
| 20260507171529 | 11 | 298 | 1.6 | 1.6 | 0.18 | 2.39 | 0.00 | 97 | 999.9 |
| 20260507171329 | 11 | 298 | 0.0 | 1.6 | 0.18 | 2.39 | 0.00 | 97 | 1000.0 |
| 20260507171129 | 10 | 298 | 0.0 | 0.0 | 0.13 | 2.36 | 0.00 | 97 | 1000.0 |
| 20260507170929 | 10 | 298 | 0.0 | 1.6 | 0.30 | 2.36 | 0.00 | 97 | 1000.0 |
| 20260507170729 | 10 | 298 | 0.0 | 0.0 | 0.30 | 2.36 | 0.00 | 97 | 999.9 |
| 20260507170529 | 10 | 299 | 1.6 | 1.6 | 0.30 | 2.36 | 0.00 | 97 | 1000.3 |
| 20260507170329 | 10 | 299 | 0.0 | 1.6 | 0.18 | 2.34 | 0.00 | 97 | 1000.2 |
| 20260507170129 | 10 | 299 | 0.0 | 3.2 | 0.18 | 2.34 | 0.00 | 97 | 1000.4 |
| 20260507165929 | 10 | 289 | 1.6 | 4.8 | 0.00 | 2.31 | 0.00 | 97 | 1000.5 |
| 20260507165729 | 10 | 311 | 3.2 | 4.8 | 0.00 | 2.31 | 0.00 | 97 | 1000.9 |
| 20260507165529 | 10 | 294 | 0.0 | 4.8 | 0.00 | 2.31 | 0.00 | 97 | 1000.6 |
| 20260507165129 | 10 | 318 | 0.0 | 1.6 | 0.00 | 2.31 | 0.00 | 97 | 1000.3 |
| 20260507164929 | 10 | 318 | 0.0 | 3.2 | 0.00 | 2.31 | 0.00 | 97 | 1000.2 |
| 20260507164329 | 10 | 318 | 1.6 | 1.6 | 0.18 | 2.31 | 0.00 | 97 | 1000.0 |
| 20260507164129 | 10 | 315 | 0.0 | 1.6 | 0.18 | 2.31 | 0.00 | 97 | 1000.1 |
| 20260507163929 | 10 | 315 | 0.0 | 0.0 | 0.18 | 2.31 | 0.00 | 97 | 999.9 |
| 20260507163729 | 10 | 315 | 0.0 | 0.0 | 0.00 | 2.29 | 0.00 | 97 | 999.7 |
| 20260507163329 | 10 | 307 | 0.0 | 0.0 | 0.13 | 2.29 | 0.00 | 97 | 1000.1 |
| 20260507163129 | 10 | 305 | 0.0 | 3.2 | 0.30 | 2.29 | 0.00 | 97 | 1000.2 |
| 20260507162929 | 10 | 314 | 3.2 | 4.8 | 0.43 | 2.29 | 0.00 | 97 | 1000.2 |
| 20260507162528 | 10 | 301 | 1.6 | 4.8 | 0.61 | 2.26 | 0.00 | 97 | 1000.4 |
| 20260507162329 | 10 | 324 | 1.6 | 3.2 | 0.61 | 2.24 | 0.00 | 97 | 1000.7 |
| 20260507162129 | 10 | 317 | 1.6 | 4.8 | 0.48 | 2.21 | 0.00 | 97 | 1000.8 |
| 20260507161729 | 10 | 331 | 1.6 | 3.2 | 0.43 | 2.18 | 0.00 | 97 | 1001.0 |
| 20260507161328 | 10 | 317 | 3.2 | 3.2 | 0.30 | 2.13 | 0.00 | 97 | 1001.1 |
| 20260507161128 | 10 | 321 | 6.4 | 6.4 | 0.43 | 2.13 | 0.00 | 97 | 1001.1 |
| 20260507160928 | 10 | 351 | 0.0 | 3.2 | 0.48 | 2.11 | 0.00 | 97 | 1001.0 |
| 20260507160728 | 10 | 9 | 3.2 | 3.2 | 0.48 | 2.11 | 0.00 | 97 | 1001.2 |
| 20260507160528 | 10 | 5 | 3.2 | 4.8 | 0.43 | 2.08 | 0.00 | 97 | 1001.1 |
| 20260507160329 | 10 | 325 | 3.2 | 4.8 | 0.61 | 2.08 | 0.00 | 97 | 1001.1 |
| 20260507160129 | 10 | 334 | 1.6 | 4.8 | 0.66 | 2.06 | 0.00 | 97 | 1000.9 |
| 20260507155329 | 10 | 348 | 3.2 | 4.8 | 0.61 | 1.98 | 0.00 | 97 | 1001.1 |
| 20260507154929 | 10 | 338 | 4.8 | 6.4 | 0.48 | 1.93 | 0.00 | 97 | 1001.1 |
| 20260507154728 | 10 | 332 | 1.6 | 3.2 | 0.43 | 1.91 | 0.00 | 97 | 1001.1 |
| 20260507154528 | 10 | 330 | 0.0 | 1.6 | 0.43 | 1.91 | 0.00 | 96 | 1001.0 |
| 20260507154328 | 10 | 330 | 1.6 | 1.6 | 0.48 | 1.88 | 0.00 | 96 | 1001.0 |
| 20260507153529 | 10 | 319 | 1.6 | 6.4 | 0.79 | 1.83 | 0.00 | 96 | 1001.4 |
| 20260507153329 | 10 | 5 | 1.6 | 3.2 | 0.79 | 1.80 | 0.00 | 96 | 1001.3 |
| 20260507153129 | 10 | 9 | 1.6 | 3.2 | 1.09 | 1.80 | 0.00 | 96 | 1001.2 |
| 20260507152929 | 10 | 335 | 9.7 | 12.9 | 1.09 | 1.75 | 0.00 | 96 | 1001.5 |
| 20260507152529 | 10 | 325 | 6.4 | 6.4 | 1.37 | 1.70 | 0.00 | 96 | 1001.6 |
| 20260507152329 | 11 | 331 | 1.6 | 3.2 | 1.63 | 1.68 | 0.00 | 96 | 1001.6 |
| 20260507152129 | 11 | 345 | 1.6 | 11.3 | 1.68 | 1.60 | 0.00 | 96 | 1001.7 |
| 20260507151929 | 11 | 344 | 3.2 | 4.8 | 1.98 | 1.55 | 0.00 | 96 | 1002.2 |
| 20260507151329 | 11 | 335 | 1.6 | 3.2 | 1.50 | 1.37 | 0.00 | 96 | 1002.0 |
| 20260507151129 | 11 | 330 | 3.2 | 3.2 | 1.09 | 1.27 | 0.00 | 96 | 1001.9 |
| 20260507150929 | 11 | 18 | 3.2 | 4.8 | 0.61 | 1.17 | 0.00 | 96 | 1002.1 |
| 20260507150729 | 11 | 322 | 3.2 | 6.4 | 0.61 | 1.14 | 0.00 | 96 | 1002.1 |
| 20260507150529 | 11 | 1 | 1.6 | 4.8 | 0.48 | 1.12 | 0.00 | 96 | 1001.9 |
| 20260507150128 | 11 | 22 | 1.6 | 3.2 | 0.79 | 1.09 | 0.00 | 96 | 1002.0 |
| 20260507145928 | 11 | 325 | 3.2 | 9.7 | 0.97 | 1.07 | 0.00 | 96 | 1001.8 |
| 20260507145728 | 11 | 338 | 4.8 | 6.4 | 0.89 | 1.04 | 0.00 | 96 | 1001.7 |
| 20260507145528 | 11 | 347 | 4.8 | 6.4 | 1.09 | 1.04 | 0.00 | 96 | 1001.6 |
| 20260507145328 | 11 | 332 | 4.8 | 4.8 | 0.79 | 0.99 | 0.00 | 96 | 1002.2 |
| 20260507145128 | 11 | 9 | 3.2 | 3.2 | 0.71 | 0.97 | 0.00 | 96 | 1002.1 |
| 20260507144928 | 11 | 7 | 3.2 | 20.9 | 0.43 | 0.91 | 0.00 | 96 | 1002.3 |
| 20260507144728 | 11 | 352 | 11.3 | 14.5 | 0.13 | 0.86 | 0.00 | 96 | 1002.4 |
| 20260507144528 | 11 | 13 | 4.8 | 11.3 | 0.30 | 0.86 | 0.00 | 96 | 1002.2 |
| 20260507144328 | 11 | 358 | 4.8 | 9.7 | 0.18 | 0.84 | 0.00 | 96 | 1002.1 |
| 20260507144128 | 11 | 350 | 3.2 | 11.3 | 0.18 | 0.84 | 0.00 | 96 | 1002.1 |
| 20260507143929 | 11 | 318 | 6.4 | 9.7 | 0.30 | 0.84 | 0.00 | 96 | 1002.1 |
| 20260507143729 | 11 | 307 | 3.2 | 4.8 | 0.30 | 0.84 | 0.00 | 96 | 1002.0 |
| 20260507143529 | 11 | 344 | 3.2 | 6.4 | 0.30 | 0.81 | 0.00 | 96 | 1002.1 |
| 20260507143329 | 11 | 305 | 6.4 | 6.4 | 0.43 | 0.81 | 0.00 | 96 | 1002.0 |
| 20260507142529 | 11 | 4 | 4.8 | 9.7 | 0.00 | 0.74 | 0.00 | 96 | 1002.1 |
| 20260507142329 | 11 | 342 | 6.4 | 9.7 | 0.00 | 0.74 | 0.00 | 97 | 1002.0 |
| 20260507142129 | 11 | 9 | 0.0 | 3.2 | 0.18 | 0.74 | 0.00 | 97 | 1001.9 |
| 20260507141929 | 11 | 333 | 1.6 | 3.2 | 0.18 | 0.74 | 0.00 | 97 | 1002.2 |
| 20260507141729 | 11 | 319 | 4.8 | 6.4 | 0.18 | 0.74 | 0.00 | 97 | 1002.0 |
| 20260507141329 | 11 | 338 | 3.2 | 11.3 | 0.36 | 0.74 | 0.00 | 96 | 1002.2 |
| 20260507141129 | 11 | 317 | 6.4 | 11.3 | 0.18 | 0.71 | 0.00 | 96 | 1002.1 |
| 20260507140929 | 11 | 31 | 4.8 | 11.3 | 0.18 | 0.71 | 0.00 | 96 | 1001.8 |
| 20260507140729 | 11 | 20 | 3.2 | 12.9 | 0.18 | 0.71 | 0.00 | 96 | 1001.8 |
| 20260507140529 | 11 | 351 | 4.8 | 11.3 | 0.18 | 0.71 | 0.00 | 96 | 1001.9 |
| 20260507140329 | 12 | 10 | 3.2 | 12.9 | 0.00 | 0.69 | 0.00 | 96 | 1002.2 |
| 20260507140129 | 12 | 325 | 0.0 | 12.9 | 0.00 | 0.69 | 0.00 | 96 | 1002.1 |
| 20260507135929 | 12 | 329 | 6.4 | 14.5 | 0.00 | 0.69 | 0.00 | 96 | 1002.1 |
| 20260507135329 | 12 | 358 | 3.2 | 4.8 | 0.00 | 0.69 | 0.00 | 96 | 1002.2 |
| 20260507135129 | 12 | 327 | 4.8 | 12.9 | 0.00 | 0.69 | 0.00 | 96 | 1002.1 |
| 20260507134929 | 12 | 318 | 16.1 | 24.1 | 0.00 | 0.69 | 0.00 | 96 | 1002.3 |
| 20260507134729 | 12 | 276 | 8.0 | 12.9 | 0.00 | 0.69 | 0.00 | 96 | 1002.3 |
| 20260507134529 | 12 | 338 | 11.3 | 17.7 | 0.00 | 0.69 | 0.00 | 96 | 1002.3 |
| 20260507134129 | 12 | 345 | 4.8 | 12.9 | 0.00 | 0.69 | 0.00 | 96 | 1002.1 |
| 20260507133929 | 12 | 313 | 9.7 | 14.5 | 0.00 | 0.69 | 0.00 | 96 | 1002.0 |
| 20260507133729 | 12 | 342 | 14.5 | 16.1 | 0.00 | 0.69 | 0.00 | 96 | 1002.1 |
| 20260507133529 | 12 | 330 | 1.6 | 9.7 | 0.00 | 0.69 | 0.00 | 96 | 1002.2 |
| 20260507133329 | 12 | 4 | 8.0 | 11.3 | 0.00 | 0.69 | 0.00 | 96 | 1002.2 |
| 20260507133129 | 12 | 320 | 11.3 | 12.9 | 0.00 | 0.69 | 0.00 | 96 | 1002.3 |
| 20260507132929 | 12 | 329 | 9.7 | 17.7 | 0.00 | 0.69 | 0.00 | 96 | 1002.5 |
| 20260507132529 | 12 | 306 | 3.2 | 11.3 | 0.00 | 0.69 | 0.00 | 96 | 1002.6 |
| 20260507132329 | 12 | 329 | 9.7 | 11.3 | 0.00 | 0.69 | 0.00 | 96 | 1002.4 |
| 20260507131929 | 12 | 344 | 8.0 | 14.5 | 0.00 | 0.69 | 0.00 | 96 | 1002.7 |
| 20260507131729 | 12 | 324 | 11.3 | 14.5 | 0.00 | 0.69 | 0.00 | 96 | 1002.7 |
| 20260507131529 | 12 | 40 | 4.8 | 14.5 | 0.00 | 0.69 | 0.00 | 96 | 1002.5 |
| 20260507131329 | 12 | 0 | 3.2 | 9.7 | 0.00 | 0.69 | 0.00 | 96 | 1002.5 |
| 20260507131129 | 12 | 293 | 9.7 | 12.9 | 0.00 | 0.69 | 0.00 | 96 | 1002.5 |
| 20260507130729 | 12 | 0 | 3.2 | 11.3 | 0.00 | 0.69 | 0.00 | 96 | 1002.7 |
| 20260507130529 | 12 | 23 | 6.4 | 11.3 | 0.00 | 0.69 | 0.00 | 96 | 1002.5 |
| 20260507130328 | 12 | 331 | 3.2 | 14.5 | 0.00 | 0.69 | 0.00 | 96 | 1002.4 |
| 20260507130128 | 12 | 317 | 3.2 | 12.9 | 0.00 | 0.69 | 0.00 | 96 | 1002.7 |
| 20260507125928 | 12 | 341 | 3.2 | 14.5 | 0.00 | 0.69 | 0.00 | 96 | 1002.9 |
| 20260507125728 | 12 | 340 | 8.0 | 20.9 | 0.00 | 0.69 | 0.00 | 96 | 1003.0 |
| 20260507125528 | 12 | 338 | 8.0 | 16.1 | 0.00 | 0.69 | 0.00 | 96 | 1003.0 |
| 20260507125129 | 12 | 17 | 12.9 | 20.9 | 0.00 | 0.69 | 0.00 | 96 | 1003.1 |
| 20260507124928 | 12 | 311 | 8.0 | 22.5 | 0.00 | 0.69 | 0.00 | 96 | 1003.4 |
| 20260507124728 | 12 | 321 | 6.4 | 22.5 | 0.00 | 0.69 | 0.00 | 95 | 1003.4 |
| 20260507124328 | 12 | 242 | 6.4 | 11.3 | 0.00 | 0.69 | 0.00 | 95 | 1003.3 |
| 20260507123728 | 12 | 290 | 1.6 | 9.7 | 0.00 | 0.69 | 0.00 | 95 | 1003.5 |
| 20260507123528 | 12 | 319 | 8.0 | 12.9 | 0.00 | 0.69 | 0.00 | 95 | 1003.2 |
| 20260507123129 | 12 | 352 | 4.8 | 14.5 | 0.00 | 0.69 | 0.00 | 95 | 1003.4 |
| 20260507122928 | 12 | 287 | 9.7 | 20.9 | 0.00 | 0.69 | 0.00 | 95 | 1003.4 |
| 20260507122729 | 12 | 311 | 1.6 | 12.9 | 0.00 | 0.69 | 0.00 | 95 | 1003.2 |
| 20260507122528 | 12 | 16 | 3.2 | 14.5 | 0.00 | 0.69 | 0.00 | 95 | 1003.5 |